When you browse on this site, cookies collect data to enhance your experience and personalize the content and advertising you see.
Visit our Privacy Policy to learn more. By continuing to use the site, you agree to this use of cookies and data.
  • In Romania
  • List of Countries
  • For 7 days
  • Water Temperature
  • Satellite Maps
  • Weather Map
  • Weather Widgets
  • user-avatar
    Login

    Hourly Weather Ituni

    Today, 20 March, Wednesday

    Time Temperature Precipitation Wind Pressure Humidity
    00:00 +24°C° 0 mm 1 mps 753 mmHg 91%
    01:00 +24°C° 0 mm 1 mps 753 mmHg 93%
    02:00 +21°C° 0 mm 0 mps 752 mmHg 96%
    03:00 +21°C° 0 mm 0 mps 752 mmHg 96%
    04:00 +21°C° 0 mm 0 mps 753 mmHg 97%
    05:00 +23°C° 0 mm 1 mps 753 mmHg 97%
    06:00 +25°C° 0 mm 1 mps 753 mmHg 90%
    07:00 +26°C° 0 mm 1 mps 753 mmHg 83%
    08:00 +28°C° 0 mm 1 mps 754 mmHg 76%
    09:00 +29°C° 0.1 mm 1 mps 754 mmHg 71%
    10:00 +30°C° 0.1 mm 2 mps 754 mmHg 66%
    11:00 +31°C° 0.1 mm 2 mps 754 mmHg 62%
    12:00 +32°C° 0.1 mm 2 mps 753 mmHg 58%
    13:00 +34°C° 0.1 mm 2 mps 752 mmHg 55%
    14:00 +35°C° 0.1 mm 2 mps 751 mmHg 52%
    15:00 +34°C° 0.1 mm 2 mps 751 mmHg 56%
    16:00 +32°C° 0.1 mm 2 mps 751 mmHg 60%
    17:00 +31°C° 0.1 mm 2 mps 750 mmHg 64%
    18:00 +29°C° 0 mm 2 mps 751 mmHg 69%
    19:00 +28°C° 0 mm 2 mps 751 mmHg 73%
    20:00 +27°C° 0 mm 2 mps 752 mmHg 78%
    21:00 +26°C° 0 mm 1 mps 752 mmHg 83%
    22:00 +25°C° 0 mm 1 mps 753 mmHg 88%
    23:00 +24°C° 0 mm 1 mps 753 mmHg 93%

    Tomorrow, 21 March, Thursday

    Time Temperature Precipitation Wind Pressure Humidity
    00:00 +22°C° 0 mm 0 mps 753 mmHg 95%
    01:00 +22°C° 0 mm 0 mps 752 mmHg 97%
    02:00 +21°C° 0 mm 0 mps 752 mmHg 98%
    03:00 +21°C° 0 mm 0 mps 752 mmHg 98%
    04:00 +21°C° 0 mm 0 mps 752 mmHg 99%
    05:00 +21°C° 0 mm 0 mps 752 mmHg 99%
    06:00 +24°C° 0.1 mm 1 mps 753 mmHg 93%
    07:00 +26°C° 0.1 mm 1 mps 753 mmHg 87%
    08:00 +27°C° 0.1 mm 1 mps 754 mmHg 81%
    09:00 +29°C° 0 mm 1 mps 754 mmHg 72%
    10:00 +30°C° 0 mm 1 mps 754 mmHg 62%
    11:00 +32°C° 0 mm 1 mps 754 mmHg 53%
    12:00 +33°C° 0 mm 1 mps 753 mmHg 50%
    13:00 +34°C° 0 mm 2 mps 752 mmHg 48%
    14:00 +35°C° 0 mm 2 mps 751 mmHg 46%
    15:00 +34°C° 0 mm 2 mps 750 mmHg 48%
    16:00 +34°C° 0 mm 2 mps 750 mmHg 50%
    17:00 +32°C° 0 mm 2 mps 750 mmHg 53%
    18:00 +31°C° 0 mm 2 mps 750 mmHg 59%
    19:00 +29°C° 0 mm 2 mps 751 mmHg 65%
    20:00 +27°C° 0 mm 2 mps 752 mmHg 71%
    21:00 +26°C° 0 mm 1 mps 752 mmHg 77%
    22:00 +25°C° 0 mm 1 mps 753 mmHg 83%
    23:00 +24°C° 0 mm 1 mps 753 mmHg 90%

    Day after tomorrow, 22 March, Friday

    Time Temperature Precipitation Wind Pressure Humidity
    00:00 +24°C° 0 mm 1 mps 753 mmHg 92%
    01:00 +21°C° 0 mm 0 mps 752 mmHg 94%
    02:00 +21°C° 0 mm 0 mps 752 mmHg 97%
    03:00 +21°C° 0 mm 0 mps 752 mmHg 97%
    04:00 +21°C° 0 mm 0 mps 752 mmHg 98%
    05:00 +21°C° 0 mm 0 mps 751 mmHg 99%
    06:00 +22°C° 0.1 mm 0 mps 752 mmHg 95%
    07:00 +23°C° 0.1 mm 0 mps 753 mmHg 92%
    08:00 +24°C° 0.1 mm 0 mps 754 mmHg 88%
    09:00 +27°C° 0.1 mm 1 mps 754 mmHg 84%
    10:00 +28°C° 0.1 mm 1 mps 754 mmHg 80%
    11:00 +28°C° 0.1 mm 1 mps 754 mmHg 76%
    12:00 +30°C° 0.1 mm 1 mps 753 mmHg 69%
    13:00 +31°C° 0.1 mm 2 mps 752 mmHg 61%
    14:00 +34°C° 0.1 mm 2 mps 751 mmHg 53%
    15:00 +34°C° 0 mm 2 mps 751 mmHg 54%
    16:00 +32°C° 0 mm 2 mps 751 mmHg 55%
    17:00 +32°C° 0 mm 2 mps 750 mmHg 57%
    18:00 +30°C° 0 mm 2 mps 751 mmHg 63%
    19:00 +28°C° 0 mm 2 mps 752 mmHg 70%
    20:00 +27°C° 0 mm 2 mps 752 mmHg 76%
    21:00 +26°C° 0 mm 1 mps 753 mmHg 82%
    22:00 +25°C° 0 mm 1 mps 753 mmHg 87%
    23:00 +24°C° 0 mm 1 mps 754 mmHg 93%

    23 March, Saturday

    Time Temperature Precipitation Wind Pressure Humidity
    00:00 +24°C° 0 mm 1 mps 753 mmHg 95%
    01:00 +21°C° 0 mm 0 mps 753 mmHg 96%
    02:00 +21°C° 0 mm 0 mps 752 mmHg 98%
    03:00 +21°C° 0 mm 0 mps 752 mmHg 98%
    04:00 +21°C° 0 mm 0 mps 752 mmHg 99%
    05:00 +21°C° 0 mm 0 mps 753 mmHg 99%
    06:00 +22°C° 0 mm 0 mps 753 mmHg 92%
    07:00 +26°C° 0 mm 1 mps 754 mmHg 86%
    08:00 +27°C° 0 mm 1 mps 755 mmHg 79%
    09:00 +29°C° 0.1 mm 1 mps 755 mmHg 70%
    10:00 +31°C° 0.1 mm 1 mps 755 mmHg 60%
    11:00 +34°C° 0.1 mm 2 mps 754 mmHg 51%
    12:00 +35°C° 0 mm 2 mps 753 mmHg 49%
    13:00 +35°C° 0 mm 2 mps 752 mmHg 47%
    14:00 +35°C° 0 mm 2 mps 751 mmHg 45%
    15:00 +35°C° 0 mm 2 mps 751 mmHg 47%
    16:00 +34°C° 0 mm 2 mps 751 mmHg 49%
    17:00 +34°C° 0 mm 2 mps 750 mmHg 52%
    18:00 +31°C° 0 mm 2 mps 751 mmHg 59%
    19:00 +29°C° 0 mm 2 mps 752 mmHg 66%
    20:00 +27°C° 0 mm 2 mps 752 mmHg 74%
    21:00 +26°C° 0 mm 2 mps 753 mmHg 80%
    22:00 +25°C° 0 mm 1 mps 753 mmHg 87%
    23:00 +24°C° 0 mm 1 mps 753 mmHg 94%

    24 March, Sunday

    Time Temperature Precipitation Wind Pressure Humidity
    00:00 +24°C° 0 mm 1 mps 753 mmHg 95%
    01:00 +22°C° 0 mm 0 mps 753 mmHg 96%
    02:00 +21°C° 0 mm 0 mps 752 mmHg 97%
    03:00 +22°C° 0.1 mm 0 mps 753 mmHg 96%
    04:00 +22°C° 0.1 mm 0 mps 753 mmHg 94%
    05:00 +23°C° 0.1 mm 0 mps 753 mmHg 93%
    06:00 +25°C° 0.2 mm 1 mps 754 mmHg 90%
    07:00 +26°C° 0.2 mm 1 mps 754 mmHg 87%
    08:00 +27°C° 0.2 mm 1 mps 755 mmHg 84%
    09:00 +29°C° 0.2 mm 2 mps 754 mmHg 74%
    10:00 +31°C° 0.2 mm 2 mps 754 mmHg 64%
    11:00 +34°C° 0.2 mm 2 mps 754 mmHg 53%
    12:00 +35°C° 0.1 mm 2 mps 753 mmHg 51%
    13:00 +35°C° 0.1 mm 2 mps 752 mmHg 48%
    14:00 +36°C° 0.1 mm 2 mps 751 mmHg 46%
    15:00 +35°C° 0 mm 2 mps 751 mmHg 50%
    16:00 +34°C° 0 mm 2 mps 750 mmHg 55%
    17:00 +31°C° 0 mm 2 mps 750 mmHg 59%
    18:00 +30°C° 0 mm 2 mps 751 mmHg 65%
    19:00 +28°C° 0 mm 2 mps 751 mmHg 72%
    20:00 +27°C° 0 mm 2 mps 752 mmHg 78%
    21:00 +26°C° 0 mm 2 mps 752 mmHg 83%
    22:00 +25°C° 0 mm 1 mps 753 mmHg 89%
    23:00 +24°C° 0 mm 1 mps 753 mmHg 94%

    25 March, Monday

    Time Temperature Precipitation Wind Pressure Humidity
    00:00 +22°C° 0 mm 0 mps 753 mmHg 96%
    01:00 +22°C° 0 mm 0 mps 752 mmHg 97%
    02:00 +21°C° 0 mm 0 mps 752 mmHg 98%
    03:00 +21°C° 0 mm 0 mps 752 mmHg 98%
    04:00 +21°C° 0 mm 0 mps 752 mmHg 98%
    05:00 +21°C° 0 mm 0 mps 752 mmHg 98%
    06:00 +23°C° 0 mm 0 mps 753 mmHg 91%
    07:00 +26°C° 0 mm 1 mps 753 mmHg 83%
    08:00 +28°C° 0 mm 1 mps 754 mmHg 76%
    09:00 +29°C° 0.1 mm 1 mps 754 mmHg 69%
    10:00 +31°C° 0.1 mm 1 mps 753 mmHg 62%
    11:00 +32°C° 0.1 mm 1 mps 753 mmHg 56%
    12:00 +32°C° 0 mm 2 mps 752 mmHg 56%
    13:00 +32°C° 0 mm 2 mps 751 mmHg 56%
    14:00 +32°C° 0 mm 2 mps 750 mmHg 56%
    15:00 +32°C° 0 mm 2 mps 750 mmHg 57%
    16:00 +32°C° 0 mm 2 mps 750 mmHg 58%
    17:00 +32°C° 0 mm 2 mps 750 mmHg 58%
    18:00 +30°C° 0 mm 2 mps 750 mmHg 64%
    19:00 +29°C° 0 mm 2 mps 751 mmHg 70%
    20:00 +27°C° 0 mm 2 mps 751 mmHg 75%
    21:00 +26°C° 0 mm 2 mps 752 mmHg 80%
    22:00 +26°C° 0 mm 1 mps 752 mmHg 85%
    23:00 +25°C° 0 mm 1 mps 753 mmHg 90%
    Show more